Wind_Speed
10 10 10 10 10 10 9 11 10 11 11 11 11 11 11 11 11 11 11 10 9 9 9 9 9 9 9 9 8 8 9 9 9 9 9 9 9 8 8 8 8 8 8
12 11 10 10 10 10 10 10 10 11 11 11 11 11 11 11 11 11 10 10 10 10 9 10 10 9 9 9 9 9 9 10 9 9 10 10 10 9 9 8 8 8 8
12 12 12 11 11 10 10 10 11 11 11 11 11 11 11 12 12 11 10 10 10 10 10 10 10 9 9 9 10 10 10 10 10 10 10 10 11 11 10 10 9 10 9
13 13 13 12 12 12 11 11 11 12 11 11 11 11 11 12 12 11 10 10 10 10 10 10 9 9 9 10 10 10 10 10 11 11 11 11 11 10 11 11 12 11 11
12 13 13 13 14 13 13 13 12 12 12 12 11 11 12 12 12 11 11 10 10 10 10 10 10 9 10 10 11 11 11 11 11 12 12 12 12 11 12 13 13 12 12
13 13 13 14 14 15 15 14 14 13 13 13 12 12 12 12 12 11 11 11 11 11 11 11 11 11 11 12 12 12 12 12 12 12 12 12 12 12 12 13 13 13 13
14 15 15 15 16 15 15 15 14 14 14 14 13 13 13 13 12 11 11 11 10 10 11 12 12 12 12 13 13 13 12 12 12 13 13 13 13 12 12 12 12 12 13
14 15 15 16 17 16 15 15 15 15 15 15 14 14 14 13 12 12 12 12 12 11 12 12 13 13 13 13 14 14 14 14 13 14 14 14 14 14 14 14 14 13 14
15 14 15 16 16 16 16 16 16 16 16 15 14 14 14 13 11 12 12 12 12 12 13 13 13 14 14 15 14 14 15 15 15 15 15 15 16 16 15 15 15 15 15
17 17 17 16 17 17 18 19 18 17 16 15 14 14 14 13 13 13 13 13 13 14 14 14 14 15 16 15 15 15 16 17 16 16 16 17 17 17 17 16 16 16 16
17 19 17 16 16 18 19 19 19 18 16 15 15 15 14 14 14 14 15 14 14 15 15 14 15 16 16 16 16 16 17 17 17 17 17 17 17 17 17 17 17 16 17
19 20 18 17 18 19 19 19 19 18 16 16 16 16 15 15 16 16 16 15 16 16 16 16 16 17 17 17 16 16 16 16 16 17 17 17 17 18 17 18 18 18 18
19 20 20 19 19 19 19 19 19 19 18 17 17 17 16 16 17 16 17 17 17 17 16 17 17 17 18 17 17 16 16 16 17 17 17 18 18 18 18 18 18 19 19
20 21 22 20 20 20 20 20 20 20 20 19 18 17 17 17 18 18 18 17 17 17 17 16 17 17 18 18 17 17 16 17 17 17 18 18 18 18 18 19 19 19 19
22 23 23 22 20 20 21 21 21 22 21 20 19 18 18 18 18 18 18 18 18 17 17 17 18 18 18 18 18 17 17 17 17 17 17 17 18 18 19 19 19 19 20
24 23 24 23 21 21 21 20 21 21 21 20 19 19 19 19 19 18 18 18 18 18 18 18 18 19 19 18 18 19 18 17 17 17 18 18 19 19 19 19 20 20 20
24 25 26 25 23 22 21 21 21 22 23 22 21 20 19 20 20 19 19 19 19 19 19 20 19 19 19 19 19 19 19 18 18 18 19 19 20 20 20 20 20 21 20
26 27 27 26 25 23 23 22 22 22 22 22 22 21 21 20 21 21 21 20 20 20 20 20 21 20 20 20 20 20 20 19 19 20 20 20 20 21 21 21 21 21 21
29 28 27 26 25 25 24 23 23 23 23 23 22 22 22 22 22 22 22 22 21 21 21 22 21 21 21 21 21 21 20 20 20 20 21 21 21 21 21 21 22 22 23
29 28 25 25 25 26 26 25 24 24 23 23 23 23 23 24 23 23 22 23 23 23 23 22 22 22 21 21 21 21 20 20 21 21 22 22 22 22 22 22 22 22 23
28 27 25 24 25 25 26 26 25 25 24 24 24 24 24 24 23 23 23 23 23 23 22 22 22 22 22 22 21 21 21 21 21 22 22 23 23 23 23 23 23 23 23
27 26 25 24 24 24 25 25 25 24 24 24 24 25 25 24 24 24 23 24 24 23 23 23 23 22 22 22 22 22 22 22 22 23 24 24 24 24 24 24 24 24 23
26 24 24 24 24 24 25 25 25 25 24 24 25 25 25 24 24 24 24 25 24 24 24 24 24 23 23 23 23 24 24 24 24 24 24 24 24 24 24 24 24 24 23
24 24 25 25 25 25 25 26 25 25 25 25 25 25 25 25 26 25 25 25 25 25 25 24 24 24 24 24 24 25 25 25 24 25 24 24 24 24 24 24 23 23 23
25 25 25 25 25 25 24 24 24 25 25 26 26 27 26 26 26 26 26 26 26 26 26 25 25 25 25 26 26 26 25 25 25 24 24 24 25 24 24 24 24 24 24
27 27 26 26 25 25 25 24 24 25 25 25 25 26 26 26 26 26 27 27 27 26 26 26 26 26 26 26 26 26 25 24 24 24 24 24 24 24 24 24 24 24 23
Wind_Direction
299 302 310 312 315 316 316 318 319 321 320 324 326 322 323 324 326 327 329 328 329 331 331 332 327 324 319 315 312 309 309 309 309 307 306 307 307 300 291 287 278 267 263
292 302 302 306 305 304 311 314 315 317 320 324 324 318 315 318 321 323 326 325 326 330 329 329 326 323 321 318 313 307 305 306 307 306 304 304 301 296 295 292 285 271 263
296 299 300 298 303 302 306 309 311 313 314 317 317 313 310 312 315 317 320 319 322 323 323 320 320 318 314 315 314 309 307 305 305 304 302 299 297 296 296 289 285 276 264
293 293 294 297 303 304 304 303 305 308 309 310 309 310 309 310 310 309 309 311 314 317 317 314 313 311 311 313 315 313 310 308 305 304 304 301 297 296 295 289 284 277 267
287 287 290 294 298 301 301 300 301 303 305 306 306 308 307 308 308 305 304 302 304 309 310 311 312 311 310 312 314 315 313 312 310 307 305 302 300 298 296 292 284 276 270
287 285 286 292 291 294 298 306 309 304 305 305 303 307 307 306 305 303 304 301 302 304 308 309 312 312 313 313 315 316 314 312 312 312 310 306 303 304 301 296 286 277 272
282 284 284 288 288 290 294 299 304 304 303 302 304 303 304 301 301 302 302 301 301 301 306 308 311 313 315 315 313 314 312 313 312 312 311 307 302 302 303 300 295 286 277
283 279 283 288 288 287 290 294 296 299 299 301 299 300 301 300 298 300 300 300 301 301 304 308 309 311 311 310 309 307 305 306 307 308 308 307 304 302 301 297 293 288 281
284 284 288 288 289 290 293 295 294 296 297 296 295 294 294 294 296 300 301 299 298 301 306 307 306 307 307 306 304 302 300 300 302 302 302 302 301 298 297 295 293 290 285
287 288 287 285 287 287 290 293 290 293 294 292 292 291 291 292 296 298 298 299 297 297 302 303 304 306 305 303 301 300 298 296 297 298 297 297 297 296 294 292 291 288 286
288 290 285 284 284 285 287 286 286 288 288 288 288 291 290 291 294 294 295 295 297 298 298 301 302 304 305 302 299 300 301 298 297 297 296 296 296 295 294 292 291 288 286
285 288 285 285 286 286 286 285 286 282 283 285 285 288 290 290 291 292 294 295 296 297 296 298 302 304 305 302 301 301 302 303 300 298 298 298 297 295 293 291 290 289 287
281 281 283 286 287 286 285 284 285 283 282 284 283 285 287 289 292 294 297 295 296 297 296 299 302 303 305 304 301 301 302 302 300 297 297 297 297 295 294 293 291 288 286
280 280 281 282 285 286 286 286 285 284 284 284 284 285 286 289 292 294 296 296 296 297 297 299 302 304 305 304 302 300 299 299 298 298 298 297 298 298 297 295 292 290 288
276 277 280 279 282 283 283 280 281 282 281 280 284 284 286 289 291 294 294 294 296 298 297 299 301 301 302 301 302 302 301 300 300 300 300 299 298 296 297 298 296 293 291
273 273 279 280 279 280 280 277 280 280 279 280 283 283 284 287 288 292 292 292 296 297 295 296 298 298 300 299 300 302 302 302 302 302 301 301 300 298 298 297 295 293 291
268 273 277 279 277 276 275 277 278 280 282 280 281 283 283 285 287 290 290 292 294 295 292 293 295 297 298 299 300 301 303 301 299 300 300 300 300 300 298 296 296 295 292
269 271 272 275 275 273 273 276 278 279 280 280 280 281 282 283 285 288 288 290 292 293 293 293 295 294 294 295 298 299 301 299 297 298 298 299 298 299 299 297 296 296 293
268 269 270 273 273 273 271 273 276 277 279 280 280 280 280 282 284 285 284 286 288 289 291 293 292 291 291 293 296 298 299 300 298 298 299 299 299 300 300 298 298 297 294
267 269 268 269 270 272 269 274 275 275 277 277 278 280 281 283 282 282 282 284 286 287 290 290 289 288 289 291 293 296 297 297 297 297 298 299 300 299 298 297 297 298 295
272 270 270 269 269 269 268 272 271 270 273 275 277 279 280 281 280 280 281 283 285 286 287 288 288 287 287 288 290 293 296 295 296 298 297 298 298 298 298 299 298 298 296
273 275 273 273 270 269 269 270 268 269 271 273 274 276 277 278 278 278 278 280 283 284 286 287 287 287 286 288 288 291 294 293 294 296 297 298 299 299 298 299 299 298 297
272 272 273 274 271 270 269 269 269 270 271 272 273 274 273 274 276 277 277 279 281 283 285 285 286 286 285 287 289 291 293 292 292 294 295 295 296 298 299 299 298 297 297
270 272 273 274 273 271 267 268 267 268 269 270 272 272 272 273 274 277 278 279 280 282 284 285 285 286 286 288 289 290 291 292 291 293 295 295 296 298 299 299 298 297 296
270 272 274 274 274 273 273 268 268 269 269 269 271 272 274 274 275 277 278 279 280 281 282 284 284 285 286 287 288 289 289 291 290 291 293 294 296 296 296 297 296 295 295
270 270 273 274 274 273 273 271 271 272 271 270 271 273 275 276 276 277 277 278 279 280 282 284 284 285 286 286 287 287 288 289 290 290 291 293 293 294 294 295 294 294 295
Height
5894 5894 5893 5892 5892 5891 5889 5888 5887 5886 5885 5883 5881 5880 5878 5877 5876 5874 5872 5871 5869 5868 5867 5865 5864 5863 5862 5860 5859 5858 5857 5856 5854 5853 5852 5850 5849 5847 5846 5845 5844 5844 5843
5892 5892 5891 5890 5890 5889 5887 5886 5886 5884 5883 5881 5879 5878 5876 5875 5874 5872 5870 5869 5868 5866 5865 5863 5862 5861 5859 5858 5857 5856 5855 5853 5852 5851 5850 5848 5847 5846 5844 5843 5842 5842 5841
5889 5888 5888 5887 5886 5885 5885 5885 5884 5882 5880 5879 5877 5876 5874 5873 5871 5870 5868 5867 5865 5864 5863 5861 5860 5859 5858 5856 5855 5853 5852 5851 5850 5848 5847 5846 5844 5843 5842 5841 5840 5839 5839
5887 5886 5885 5885 5884 5884 5882 5882 5880 5879 5878 5876 5874 5873 5871 5870 5869 5867 5865 5864 5863 5862 5860 5859 5858 5857 5855 5854 5852 5851 5849 5848 5846 5845 5844 5843 5841 5840 5839 5838 5836 5836 5836
5884 5883 5882 5882 5881 5881 5880 5878 5877 5876 5874 5873 5872 5870 5869 5867 5866 5864 5863 5861 5860 5859 5858 5857 5856 5854 5853 5851 5849 5848 5846 5845 5844 5842 5841 5839 5838 5837 5836 5834 5833 5832 5832
5880 5880 5879 5879 5879 5878 5876 5875 5874 5873 5872 5870 5868 5867 5866 5864 5863 5861 5860 5859 5857 5857 5855 5854 5853 5852 5850 5849 5847 5845 5844 5842 5841 5839 5837 5836 5835 5833 5832 5830 5829 5828 5828
5876 5876 5876 5876 5875 5874 5873 5872 5871 5870 5869 5867 5866 5864 5863 5861 5860 5858 5857 5856 5855 5854 5852 5851 5850 5849 5847 5846 5844 5842 5841 5839 5837 5835 5834 5832 5831 5829 5828 5826 5825 5824 5824
5873 5872 5872 5871 5871 5870 5870 5868 5867 5867 5865 5864 5862 5860 5859 5858 5857 5855 5854 5853 5852 5851 5849 5848 5847 5845 5844 5842 5841 5839 5837 5836 5834 5832 5830 5829 5827 5825 5824 5822 5821 5820 5819
5868 5868 5868 5867 5866 5866 5865 5865 5863 5862 5861 5860 5858 5857 5855 5854 5853 5852 5851 5850 5849 5847 5846 5844 5843 5842 5840 5839 5837 5835 5834 5832 5830 5828 5826 5824 5823 5821 5819 5818 5816 5815 5814
5864 5864 5863 5861 5861 5861 5861 5860 5859 5858 5857 5855 5854 5852 5851 5850 5849 5848 5847 5846 5845 5844 5842 5841 5839 5838 5836 5834 5832 5831 5829 5827 5825 5823 5821 5820 5818 5816 5814 5813 5811 5810 5809
5859 5859 5858 5857 5857 5856 5856 5855 5855 5853 5852 5851 5850 5848 5847 5847 5846 5845 5844 5842 5841 5840 5838 5836 5835 5833 5831 5829 5828 5826 5824 5822 5820 5818 5816 5815 5813 5811 5809 5808 5806 5805 5804
5855 5854 5853 5853 5853 5852 5851 5850 5849 5848 5847 5846 5845 5844 5843 5842 5841 5840 5839 5838 5837 5835 5834 5832 5830 5828 5826 5824 5822 5821 5819 5817 5815 5813 5812 5810 5808 5806 5804 5803 5801 5800 5798
5850 5850 5849 5848 5848 5847 5846 5845 5844 5843 5842 5841 5840 5840 5839 5838 5836 5835 5834 5833 5832 5831 5829 5828 5826 5824 5821 5819 5817 5816 5814 5812 5810 5809 5807 5805 5803 5801 5799 5797 5796 5794 5793
5844 5844 5843 5843 5842 5841 5840 5840 5839 5837 5836 5836 5835 5835 5834 5833 5832 5831 5829 5828 5827 5826 5824 5823 5821 5819 5817 5814 5812 5811 5809 5807 5805 5803 5801 5799 5797 5796 5794 5792 5790 5789 5787
5838 5838 5837 5837 5836 5835 5835 5834 5833 5832 5831 5830 5830 5829 5829 5828 5827 5826 5824 5823 5822 5820 5819 5818 5816 5814 5812 5810 5808 5806 5804 5802 5800 5798 5796 5794 5792 5791 5789 5787 5785 5783 5782
5832 5831 5831 5830 5829 5829 5828 5828 5827 5825 5825 5824 5824 5824 5823 5822 5821 5820 5819 5818 5817 5815 5814 5812 5811 5809 5807 5804 5802 5801 5799 5797 5795 5793 5791 5789 5787 5785 5783 5782 5780 5778 5776
5824 5824 5824 5824 5823 5823 5822 5822 5821 5820 5819 5818 5818 5818 5817 5817 5816 5815 5813 5812 5811 5809 5808 5807 5805 5803 5801 5799 5797 5795 5793 5792 5790 5788 5786 5784 5782 5780 5778 5776 5774 5772 5770
5817 5817 5817 5817 5816 5816 5815 5815 5814 5814 5813 5813 5812 5811 5811 5811 5810 5809 5807 5806 5805 5803 5802 5801 5799 5798 5796 5794 5792 5790 5788 5786 5784 5783 5781 5778 5776 5774 5772 5770 5768 5766 5764
5810 5810 5810 5809 5809 5809 5809 5808 5808 5807 5806 5806 5805 5805 5804 5804 5803 5802 5801 5800 5799 5797 5796 5794 5793 5791 5790 5788 5786 5784 5782 5780 5779 5777 5775 5773 5771 5769 5767 5765 5763 5760 5758
5802 5801 5801 5801 5802 5802 5802 5801 5800 5800 5799 5799 5798 5798 5798 5797 5796 5795 5794 5793 5792 5791 5789 5788 5786 5785 5783 5781 5780 5778 5777 5775 5773 5771 5769 5767 5765 5763 5760 5758 5756 5754 5751
5793 5793 5792 5793 5794 5794 5794 5793 5793 5793 5793 5792 5791 5791 5790 5790 5789 5788 5787 5786 5785 5784 5782 5781 5780 5778 5777 5775 5774 5772 5771 5769 5767 5765 5763 5761 5759 5756 5754 5752 5749 5747 5744
5785 5785 5785 5785 5785 5786 5786 5786 5785 5786 5785 5784 5784 5784 5783 5782 5782 5781 5780 5779 5778 5777 5775 5774 5773 5771 5770 5769 5767 5765 5764 5762 5761 5759 5757 5754 5752 5750 5747 5745 5742 5740 5737
5778 5778 5777 5778 5778 5778 5778 5778 5778 5778 5777 5777 5777 5776 5776 5775 5774 5773 5772 5771 5770 5770 5768 5767 5766 5765 5763 5762 5760 5759 5757 5755 5754 5752 5750 5747 5745 5743 5740 5738 5736 5733 5731
5770 5770 5770 5770 5770 5770 5770 5770 5770 5769 5770 5770 5770 5769 5768 5767 5766 5765 5765 5764 5763 5762 5761 5760 5758 5757 5756 5755 5753 5751 5750 5748 5746 5744 5742 5740 5738 5736 5734 5731 5729 5726 5724
5762 5763 5763 5762 5762 5762 5762 5762 5762 5762 5762 5762 5762 5761 5760 5759 5759 5758 5757 5756 5755 5754 5753 5752 5751 5750 5748 5747 5746 5744 5742 5740 5739 5737 5735 5733 5731 5729 5727 5725 5722 5720 5718
5754 5754 5754 5754 5754 5754 5754 5754 5754 5754 5754 5754 5753 5753 5752 5751 5751 5750 5749 5748 5747 5746 5744 5743 5742 5741 5741 5739 5738 5736 5735 5733 5731 5730 5728 5726 5724 5722 5720 5718 5716 5713 5711